Location: Poughquag
(41.6090°N, 73.6820°W)
Time: 12:00:04
(UTC-04:00)

Vanguard 2 Rocket - Pass Details

Date: 02 June 2020
Orbit: 556 x 3324 km, 32.9° (Epoch: 06 July)

Event Time Altitude Azimuth Distance (km) Brightness Sun altitude
Rises 13:43:05 0° 208° (SSW) 3,148 10.0 68.0°
Reaches altitude 10° 13:45:44 10° 190° (S) 2,475 9.6 67.7°
Maximum altitude 13:49:58 20° 143° (SE) 2,262 9.3 67.3°
Drops below altitude 10° 13:55:52 10° 100° (E) 3,612 10.0 66.6°
Sets 14:00:51 0° 87° (E) 5,166 10.6 66.0°
